Location: *
(35.2348°S, 91.3916°E)
Time: 02:43:39
(UTC+00:00)

Cosmos 1943 - Pass Details

Date: 23 October 2019
Orbit: 834 x 849 km, 71.0° (Epoch: 21 November)

Event Time Altitude Azimuth Distance (km) Brightness Sun altitude
Rises 21:55:51 0° 210° (SSW) 3,429 6.3 -13.4°
Reaches altitude 10° 21:58:27 10° 217° (SW) 2,489 5.5 -12.9°
Maximum altitude 22:03:43 39° 284° (WNW) 1,251 3.6 -11.9°
Drops below altitude 10° 22:08:57 10° 352° (N) 2,469 5.3 -11.0°
Sets 22:11:31 0° 359° (N) 3,397 6.1 -10.5°
